Home   Weather   Ludwigshafen   Past weeks

Flag for Germany Past Weather in Ludwigshafen, Rhineland-Palatinate, Germany — Yesterday and Last 2 Weeks

Now
63 °F

Passing clouds.


Feels Like: 63 °F
Forecast: 56 / 81 °F
Wind: 5 mph from North

Location: Mannheim City

Current Time: May 26, 2017 at 9:20:37 am

Latest Report: May 26, 2017 at 8:20 am


Visibility: N/A

Pressure: 30.18 "Hg

Humidity: 73%

Dew Point: 54 °F

Location of LudwigshafenLocation

Past Weather in Ludwigshafen — Graph

°F

Ludwigshafen Temperature Yesterday

Maximum temperature yesterday: 75 °F (at 4:50 pm)
Minimum temperature yesterday: 57 °F (at 7:20 am)
Average temperature yesterday: 69 °F

High & Low Weather Summary for the Past Weeks

 TemperatureHumidityPressure
High84 °F (May 17, 5:20 pm)100% (May 12, 5:20 am)30.42 "Hg (May 12, 5:20 am)
Low45 °F (May 21, 5:50 am)26% (May 16, 6:20 pm)29.47 "Hg (May 11, 4:20 pm)
Average66 °F63%30.06 "Hg
* Reported May 11 8:20 am — May 26 8:20 am, Ludwigshafen. Weather by CustomWeather, © 2017

Note: Actual official high and low records may vary slightly from our data, if they occured in-between our weather recording intervals... More about our weather records

Advertising

Ludwigshafen Weather History for the Previous 24 Hours

Scroll right to see more
 ConditionsComfort  
Time TempWeatherWind HumidityBarometerVisibility
8:20 am
Fri, May 26
63 °FPassing clouds.5 mph73%30.18 "HgN/A
7:50 am61 °FPassing clouds.6 mph77%30.18 "HgN/A
7:20 am61 °FPassing clouds.7 mph72%30.15 "HgN/A
6:50 am59 °FSunny.6 mph82%30.15 "Hg10 mi
6:20 am57 °FSunny.6 mph88%30.15 "Hg10 mi
5:50 am55 °FSunny.3 mph88%30.15 "Hg10 mi
7:50 pm
Thu, May 25
73 °FPassing clouds.6 mph44%30.12 "HgN/A
7:20 pm73 °FPassing clouds.8 mph44%30.15 "HgN/A
6:50 pm73 °FSunny.8 mph41%30.15 "Hg10 mi
6:20 pm73 °FPassing clouds.8 mph41%30.15 "HgN/A
5:50 pm73 °FPassing clouds.7 mph38%30.15 "HgN/A
5:20 pm73 °FPassing clouds.9 mph41%30.15 "HgN/A
4:50 pm75 °FSunny.6 mph39%30.15 "Hg10 mi
4:20 pm73 °FPassing clouds.9 mph44%30.15 "HgN/A
3:50 pm73 °FPassing clouds.8 mph38%30.15 "HgN/A
3:20 pm72 °FPassing clouds.6 mph44%30.18 "HgN/A
2:50 pm72 °FPassing clouds.7 mph47%30.18 "HgN/A
2:20 pm72 °FPassing clouds.6 mph47%30.18 "HgN/A
1:50 pm70 °FScattered clouds.6 mph46%30.18 "HgN/A
1:20 pm70 °FScattered clouds.6 mph53%30.21 "HgN/A
12:50 pm70 °FScattered clouds.3 mph53%30.21 "HgN/A
12:20 pm70 °FPartly sunny.5 mph57%30.21 "HgN/A
11:50 am66 °FPartly sunny.3 mph64%30.21 "HgN/A
11:20 am66 °FBroken clouds.5 mph64%30.21 "HgN/A
10:20 am66 °FScattered clouds.2 mph68%30.21 "HgN/A
9:50 am64 °FScattered clouds.3 mph78%30.21 "HgN/A
9:20 am63 °FPartly sunny.5 mph83%30.21 "HgN/A
Weather by CustomWeather, © 2017

See weather overviewHow to use our weather pages